Regional Weather Roundup
Issued by NWS

Home | Current Version | Previous Version | Graphics & Text | Print | Product List | Glossary On
Versions: 1 2 3 4 5 6 7 8 9 10 11 12 13 14 15 16 17 18 19 20 21 22 23 24 25 26 27 28 29 30 31 32 33 34 35 36 37 38 39 40 41 42 43 44 45 46 47 48 49 50
000
ASUS43 KMKX 011459
RWRWI

WISCONSIN REGIONAL WEATHER ROUNDUP
NATIONAL WEATHER SERVICE MILWAUKEE/SULLIVAN WI
1000 AM CDT WED APR 01 2015

NOTE: "FAIR" INDICATES FEW OR NO CLOUDS BELOW 12,000 FEET WITH NO
SIGNIFICANT WEATHER AND/OR OBSTRUCTIONS TO VISIBILITY.

WIZ001-002-006>008-014>016-023>028-011600-
NORTHWEST WISCONSIN

CITY           SKY/WX    TMP DP  RH WIND       PRES   REMARKS
SUPERIOR ARPT  CLOUDY    33  32  96 E12G21    29.83F WCI  24
ASHLAND        CLOUDY    35  34  96 NE6       29.87F WCI  30
HAYWARD        PTSUNNY   46  31  55 SE14G24   29.82F
SIREN          MOSUNNY   50  32  49 S13G23    29.77F
CUMBERLAND     SUNNY     45  32  61 SE16      29.82F
RICE LAKE      SUNNY     46  32  57 SE18G24   29.85F
CHETEK         SUNNY     47  33  58 E12G20    29.85F
LADYSMITH      CLOUDY    45  32  60 SE9G21    29.91S
EAU CLAIRE     NOT AVBL
MENOMONIE      MOSUNNY   50  32  50 SE17      29.85F
NEW RICHMOND   MOSUNNY   52  32  47 SE16      29.79F
OSCEOLA        PTSUNNY   52  33  49 SE13G18   29.79F
$$

WIZ003>005-009-010-017-018-011600-
NORTH CENTRAL WISCONSIN

CITY           SKY/WX    TMP DP  RH WIND       PRES   REMARKS
MANITOWISH WTR CLOUDY    39  32  74 S8        29.92F WCI  34
ARBOR VITAE    PTSUNNY   39  32  75 SE9       29.93S WCI  33
WOODRUFF       PTSUNNY   39  32  75 SE9       29.93S WCI  33
RHINELANDER    CLOUDY    41  31  67 S9        29.96F
EAGLE RIVER    SUNNY     37  30  77 S10       29.94F WCI  29
LAND O LAKES   MOSUNNY   38  36  95 S8        29.95F WCI  32
PHILLIPS       MOSUNNY   42  31  64 SE10      29.91F
TOMAHAWK       MOSUNNY   39  32  76 SE5       29.96S
MEDFORD        PTSUNNY   41  32  70 SE14G21   29.93F
MERRILL        PTSUNNY   40  34  78 SE9       29.98S WCI  34
$$

WIZ029-030-035-036-043>047-011600-
CENTRAL WISCONSIN

CITY           SKY/WX    TMP DP  RH WIND       PRES   REMARKS
WAUSAU         MOSUNNY   43  33  68 SE15      29.97F
MOSINEE        PTSUNNY   43  36  75 SE12      29.99F
MARSHFIELD     MOSUNNY   47  31  53 SE12      29.95F
STEVENS POINT  PTSUNNY   40  32  71 SE13      30.00F WCI  33
WAUPACA        PTSUNNY   44  35  71 SE6       30.03F
WAUTOMA        NOT AVBL
WISC RAPIDS    MOSUNNY   49  29  46 SE12      29.98F
CAMP DOUGLAS   NOT AVBL
$$

WIZ011>013-019>022-031-037>040-048>050-011600-
NORTHEAST WISCONSIN

CITY           SKY/WX    TMP DP  RH WIND       PRES   REMARKS
ANTIGO         CLOUDY    37  33  87 SE12      30.01R WCI  29
SHAWANO        PTSUNNY   37  33  84 NE6       30.06R WCI  32
OCONTO         CLOUDY    35  31  86 E6        30.06R WCI  30
STURGEON BAY   CLOUDY    37  30  75 E7        30.08F WCI  32
GREEN BAY      PTSUNNY   40  34  79 SE3       30.06R
MANITOWOC      NOT AVBL
APPLETON       PTSUNNY   43  34  70 SE10      30.04R
CLINTONVILLE   PTSUNNY   41  34  75 SE5       30.04R
OSHKOSH        PTSUNNY   46  34  62 E8        30.02F
$$

WIZ032>034-041-042-053>061-011600-
SOUTHWEST WISCONSIN

CITY           SKY/WX    TMP DP  RH WIND       PRES   REMARKS
LA CROSSE      SUNNY     55  33  43 SW7       29.90F
SPARTA         SUNNY     53  30  41 SE8       29.93F
VIROQUA        SUNNY     50  33  51 SE13      29.92F
BOSCOBEL       SUNNY     55  34  45 VRB5      29.95F
PRAIRIE DU CHI SUNNY     51  34  51 SE5       29.92F
PLATTEVILLE    SUNNY     52  37  56 E7        29.97S
$$

WIZ056-057-062-063-064-067-068-011600-
SOUTH CENTRAL WISCONSIN

CITY           SKY/WX    TMP DP  RH WIND       PRES   REMARKS
REEDSBURG      SUNNY     49  32  51 E5        29.97F
BARABOO/DELLS  SUNNY     50  32  49 SE9       29.98F
LONE ROCK      NOT AVBL
MINERAL POINT  SUNNY     52  34  50 SE10      29.97S
MADISON        MOSUNNY   51  34  52 SE8       30.01S
MIDDLETON      SUNNY     49  34  54 E7        30.01S
WATERTOWN      PTSUNNY   49  34  55 SE13      30.02S
MONROE         SUNNY     50  37  62 SE8       29.99F
JANESVILLE     SUNNY     54  36  50 SE7       30.01S
$$

WIZ051-052-058>065-066-070>072-011600-
SOUTHEAST WISCONSIN

CITY           SKY/WX    TMP DP  RH WIND       PRES   REMARKS
MILWAUKEE      PTSUNNY   46  32  58 SE9       30.07S
WAUKESHA       MOSUNNY   46  34  61 E9        30.05S
MILWAUKEE/TIMM SUNNY     46  30  53 E7        30.06S
RACINE         MOSUNNY   47  33  58 SE8       30.08R
BURLINGTON     PTSUNNY   47  35  64 SE6       30.05R
KENOSHA        MOSUNNY   49  36  61 SE5       30.06R
FOND DU LAC    CLOUDY    47  33  58 SE13      30.03S
SHEBOYGAN      MOSUNNY   40  33  76 E8        30.07R WCI  34
WEST BEND      CLOUDY    45  32  61 E7        30.05S
JUNEAU         PTSUNNY   46  34  62 E13       30.03F
$$

LSZ147-162-011600-
LAKE SUPERIOR

STATION/POSITION TIME  TEMP    WIND        PRES    WAVE
                       AIR SEA DIR/SP/G            HT/PER
                 (UTC) (F)     (DEG/KT/KT) (MB)    (FT/S)
DEVILS ISLAND    1400   31      80/ 17/ 18 1013.7F
PORT WING        1400   32      40/ 13/ 16 1011.9F
SAXON HARBOR     1440   35        CALM     1011.9F
$$

LMZ867-665-643>646-011600-
LAKE MICHIGAN

STATION/POSITION TIME  TEMP    WIND        PRES    WAVE
                       AIR SEA DIR/SP/G            HT/PER
                 (UTC) (F)     (DEG/KT/KT) (MB)    (FT/S)
NORTHPORT PIER   1401   31     100/  4/  6 1018.3R
SISTER BAY       1417   45     150/ 10/ 12   N/A
KEWAUNEE LAKESHO 1400   35      40/  4/  6 1017.2R
SHEBOYGAN LAKESH 1400   36      90/  2/  3 1018.9R
PORT WASHINGTON  1400   40     110/  3/  4 1019.0
MILWAUKEE LAKESH 1400   40      40/  1/  1   N/A
KENOSHA   LAKESH 1400   39        CALM     1017.9R
$$

TC  - TEMPERATURE IN CELSIUS
VSB - VISIBILITY IN STATUTE MILES
WCI - WIND CHILL INDEX
HX  - HEAT INDEX




USA.gov is the U.S. government's official web portal to all federal, state and local government web resources and services.